Notices

What's New in latest Release from April 7th, 2021:

- Updated Glossary, including Speed of Maximum Gust, and Total Hourly Precipitation

- Updated national and regional climate services offices contacts and prices information

- Addition of station inventory lists for 1981-2010, 1971-2000, and 1961-1990 Normals.

If you haven't already, please take our survey and provide feedback about our website: https://eccc.sondage-survey.ca/f/LanguageSelection.aspx?s=442ca660-fcf1-47c0-95a9-59707d6fd709

Hourly Data Report for November 12, 2016

CARBERRY CS
MANITOBA

49°54'20.900" N
99°21'26.800" W
383.50 m
5010547
71170
WZE

Download Data

Hourly Data (November 2016)
Hourly Data Report for November 12, 2016
TIME
LST
Temp Definition
°C
Dew Point Definition
°C
Rel Hum Definition
%
Precip. Amount Definition
mm

Wind Dir Definition
10's deg

Wind Spd Definition
km/h
Visibility Definition
km
Stn Press Definition
kPa
Hmdx Definition


Wind Chill Definition


Weather Definition


00:00 8.1 -1.2 52 0.0 23 22   96.80     LegendNANA
01:00 9.1 -0.8 50 0.0 23 23   96.70     LegendNANA
02:00 9.1 -1.1 49 0.0 23 25   96.66     LegendNANA
03:00 7.8 -1.2 53 0.0 23 20   96.61     LegendNANA
04:00 5.7 -1.4 60 0.0 22 13   96.55     LegendNANA
05:00 4.2 -1.7 65 0.0 23 7   96.50     LegendNANA
06:00 4.7 -1.4 65 0.0 23 10   96.49     LegendNANA
07:00 4.4 -1.2 67 0.0 23 13   96.47     LegendNANA
08:00 3.8 -1.3 69 0.0 24 14   96.46     LegendNANA
09:00 4.3 -1.0 69 0.0 26 13   96.50     LegendNANA
10:00 6.3 -0.3 62 0.0 25 15   96.50     LegendNANA
11:00 8.2 0.4 58 0.0 25 11   96.45     LegendNANA
12:00 10.5 1.2 53 0.0 25 9   96.40     LegendNANA
13:00 12.4 1.3 47 0.0 22 4   96.31     LegendNANA
14:00 14.0 2.5 46 0.0 20 8   96.23     LegendNANA
15:00 14.1 2.2 45 0.0 21 11   96.18     LegendNANA
16:00 13.7 2.9 48 0.0 22 8   96.16     LegendNANA
17:00 11.0 2.8 57 0.0 22 8   96.14     LegendNANA
18:00 9.3 2.5 63 0.0 21 10   96.11     LegendNANA
19:00 7.6 2.6 71 0.0 20 9   96.04     LegendNANA
20:00 6.6 2.2 74 0.0 20 10   95.94     LegendNANA
21:00 6.6 2.0 73 0.0 21 10   95.88     LegendNANA
22:00 5.4 1.6 77 0.0 21 12   95.83     LegendNANA
23:00 5.6 1.4 74 0.0 22 9   95.80     LegendNANA

Notes on Data Quality.

Legend

  • E = Estimated
  • M = Missing
  • NA = Not Available*
  • [empty] = Indicates an unobserved value
Date modified: